Regional Weather Roundup
Issued by NWS

Home | Current Version | Previous Version | Graphics & Text | Print | Product List | Glossary On
Versions: 1 2 3 4 5 6 7 8 9 10 11 12 13 14 15 16 17 18 19 20 21 22 23 24 25 26 27 28 29 30 31 32 33 34 35 36 37 38 39 40 41 42 43 44 45 46 47 48 49 50
000
ASUS45 KCYS 211010
RWRWY

WYOMING REGIONAL WEATHER ROUNDUP
NATIONAL WEATHER SERVICE CHEYENNE WY
400 AM MDT SAT OCT 21 2017

NOTE:  "FAIR" INDICATES FEW OR NO CLOUDS BELOW 12,000 FEET
WITH NO SIGNIFICANT WEATHER AND/OR OBSTRUCTIONS TO VISIBILITY.

WYZ001-211100-
YELLOWSTONE NATIONAL PARK

CITY           SKY/WX    TMP DP  RH WIND       PRES   REMARKS
LK YELLOWSTONE   N/A     20  16  84 CALM      29.94R
W YELLOWSTONE  NOT AVBL

$$
WYZ002>013-054>058-071-098>099-211100-
NORTHERN WYOMING

CITY           SKY/WX    TMP DP  RH WIND       PRES   REMARKS
JACKSON        MOCLDY    27  24  89 SW12      29.96R WCI  17
CODY           NOT AVBL
GREYBULL       FAIR      36  22  56 NW3       29.79R
WORLAND        FAIR      25  22  88 CALM      29.80R
SHERIDAN       FAIR      37  20  50 NW9       29.74R WCI  30
BUFFALO        FAIR      43  11  27 NW16      29.75R
GILLETTE       FAIR      42  21  43 NW21G28   29.73R
HULETT         FAIR      43  27  52 W9G21     29.71S
NEWCASTLE      FAIR      41  28  60 NW17      29.71R

$$
WYZ014>020-022>026-101>103-211100-
CENTRAL WYOMING

CITY           SKY/WX    TMP DP  RH WIND       PRES   REMARKS
BIG PINEY      FAIR      23  18  81 NW7       29.98R WCI  15
PINEDALE       FAIR      23  23 100 NW9       29.98R WCI  13
DUBOIS         PTSUNNY   25  18  74 W8        29.91R WCI  16
LANDER         FAIR      31  20  63 CALM      29.85R
RIVERTON       FAIR      36  14  40 W24       29.84R WCI  24
CASPER         FAIR      33  17  51 SW8       29.81S WCI  26
DOUGLAS        FAIR      41  17  38 NW17      29.77R

$$
WYZ021-027>030-104>119-211100-
SOUTHERN WYOMING

CITY           SKY/WX    TMP DP  RH WIND       PRES   REMARKS
EVANSTON       MOCLDY    27  20  75 SW5       30.05R WCI  22
KEMMERER       FAIR      28  19  69 W10       30.01R WCI  19
FORT BRIDGER   FAIR      27  21  77 W13       30.06R WCI  17
ROCK SPRINGS   FAIR      27  18  69 W20       29.99R WCI  13
DIXON          FAIR      21  18  88 NE3       30.02S
RAWLINS        FAIR      28  18  66 W22G30    29.90S WCI  14
SARATOGA       FAIR      27  21  80 W18       29.93S WCI  13
LARAMIE        FAIR      30  19  63 W13       29.84R WCI  20
CHEYENNE       FAIR      40  14  34 NW25G37   29.73R WCI  29
TORRINGTON     CLOUDY    48  19  31 W18G28    29.71R
PINE BLUFFS    CLOUDY    43  14  31 NW37G45   29.72R

$$



USA.gov is the U.S. government's official web portal to all federal, state and local government web resources and services.